Torna al catalogo

CZ-6A DEB

AttivoSSO
NORAD 54926·DEBRIS·🇨🇳 China

Lanciato Nov 11, 2022 da Taiyuan Satellite Launch Center

Loading…

Prossimi Passaggi (prossime 24 ore)

TLE

AggiornatoSource: Space-Track

Epoca: Sep 14, 2026, 09:10 UTC

1 54926U 22151RP  26257.38228638  .00000488  00000-0  30397-3 0  9994
2 54926  98.8518 245.2959 0063970 100.8930 259.9446 14.08398489196581

Traccia CZ-6A DEB in tempo reale con AllMySat

Download on the App Store